Volver al catálogo

STARLINK-1566

ActivoComunicacionesVLEO
NORAD 46079·PAYLOAD·🇺🇸 United States

Lanzado Aug 7, 2020 desde Cape Canaveral Space Force Station

Loading…

Próximos Pases (próximas 24 horas)

TLE

ActualizadoSource: CelesTrak SupGP

Época: Sep 14, 2026, 14:05 UTC

1 46079C 20055BE  26257.58729167  .00049246  00000+0  15835-2 0  2570
2 46079  53.1588 302.0560 0001311  77.6243 264.2093 15.31679548    15

Sigue STARLINK-1566 en tiempo real con AllMySat

Download on the App Store